Hourly Data Report for October 01, 2016

All times are specified in Local Standard Time (LST). Add 1 hour to adjust for Daylight Saving Time where and when it is observed.

EUREKA CLIMATE
NUNAVUT

79°59'21.000" N
85°56'02.000" W
10.00 m
2401199
71613
NEK

Download Data

Hourly Data (October 2016)
Hourly Data Report for October 1, 2016
Temp Definition
°C
Dew Point Temp Definition
°C
Rel Hum Definition
%
Wind Dir Definition
10's deg

Wind Spd Definition
km/h
Visibility Definition
km
Stn Press Definition
kPa
Hmdx Definition


Wind Chill Definition


Weather Definition


TIME
00:00 -7.5 -9.1 88 26 11   101.84   -13 LegendNANA
01:00 -9.5 -10.6 92 11 11   101.83   -15 LegendNANA
02:00 -9.5 -10.5 92 11 11   101.81   -15 LegendNANA
03:00 -9.4 -10.3 93 11 9   101.81   -14 LegendNANA
04:00 -9.4 -10.2 94 11 9   101.80   -14 LegendNANA
05:00 -9.5 -10.4 94 8 6   101.77   -13 LegendNANA
06:00 -9.6 -10.4 94 8 5   101.73   -12 LegendNANA
07:00 -8.9 -9.8 94 8 3   101.69   -11 LegendNANA
08:00 -9.0 -9.9 93 2 5   101.67   -12 LegendNANA
09:00 -8.6 -9.6 93 8 5   101.63   -11 LegendNANA
10:00 -8.5 -9.5 92 8 4   101.59   -11 LegendNANA
11:00 -8.4 -9.5 92 4 5   101.55   -11 LegendNANA
12:00 -8.5 -9.7 91 2 6   101.51   -12 LegendNANA
13:00 -8.3 -9.3 92 2 5   101.48   -11 LegendNANA
14:00 -7.9 -8.9 93 9 3   101.43   -9 LegendNANA
15:00 -8.0 -8.9 93 2 5   101.38   -11 LegendNANA
16:00 -7.8 -8.8 93 9 3   101.32   -9 LegendNANA
17:00 -7.6 -8.4 94 36 1   101.26   -8 LegendNANA
18:00 -7.5 -8.2 95 8 1   101.19   -8 LegendNANA
19:00 -7.5 -8.1 95 13 4   101.11   -10 LegendNANA
20:00 -7.4 -7.9 96 7 1   101.05   -8 LegendNANA
21:00 -7.6 -8.2 96 3 4   100.98   -10 LegendNANA
22:00 -8.6 -9.3 95 3 4   100.92   -11 LegendNANA
23:00 -8.6 -9.3 95 5 4   100.88   -11 LegendNANA

Notes on Data Quality.

Legend

  • E = Estimated
  • M = Missing
  • NA = Not Available
  • ‡ = Partner data that is not subject to review by the National Climate Archives
Date modified: